Location: Unspecified
(0.0000°N, 0.0000°E)
Time: 09:04:25
(UTC+00:00)

CUTE-I - Pass Details

Date: 30 May 2019
Orbit: 810 x 825 km, 98.7° (Epoch: 23 June)

Event Time Altitude Azimuth Distance (km) Brightness Sun altitude
Rises 04:43:25 0° 54° (NE) 3,328 ? -17.2°
Reaches altitude 10° 04:48:03 10° 92° (E) 2,405 ? -16.1°
Maximum altitude 04:49:07 11° 104° (ESE) 2,365 ? -15.8°
Drops below altitude 10° 04:50:12 10° 115° (ESE) 2,409 ? -15.6°
Sets 04:54:50 0° 153° (SSE) 3,349 ? -14.5°
